Weather History for KBGR - January, 2014

Change the Weather History Date:

Sunday, January 19, 2014

  Actual Average Record
Temperature  
Mean Temperature 28 °F 16 °F  
Max Temperature 32 °F 27 °F 50 °F (1929)
Min Temperature 24 °F 6 °F -28 °F (1971)
Degree Days  
Heating Degree Days 37 49  
Month to date heating degree days 822 908  
Since 1 July heating degree days 3834 3829  
Cooling Degree Days 0 0  
Month to date cooling degree days 0 0  
Year to date cooling degree days 0 0  
Moisture  
Dew Point 26 °F    
Average Humidity 80    
Maximum Humidity 92    
Minimum Humidity 68    
Precipitation  
Precipitation 0.16 in 0.09 in 1.39 in (1960)
Month to date precipitation 2.92 1.78  
Year to date precipitation 2.92 1.78  
Snow  
Snow 4.00 in 0.60 in 13.90 in (1960)
Month to date snowfall 6.8 11.9  
Since 1 July snowfall 36.1 28.7  
Snow Depth 0.00 in    
Sea Level Pressure  
Sea Level Pressure 29.50 in    
Wind  
Wind Speed 2 mph (SW)    
Max Wind Speed 14 mph    
Max Gust Speed 22 mph    
Visibility 5 miles    
Events Fog , Snow    
T = Trace of Precipitation, MM = Missing Value Source: NWS Daily Summary

Daily Weather History Graph

Daily Weather History Graph

Search for Another Location

Airport or City:

Trip Planner

Search our weather history database for the weather conditions in past years. The results will help you decide how hot, cold, wet, or windy it might be!

Date:

Astronomy

Jan. 19, 2014 Rise Set
Actual Time 7:06 AM EST 4:25 PM EST
Civil Twilight 6:34 AM EST 4:58 PM EST
Nautical Twilight 5:58 AM EST 5:33 PM EST
Astronomical Twilight 5:23 AM EST 6:08 PM EST
Moon 8:11 PM EST (1/19) 8:25 AM EST (1/19)
Length of Visible Light 10h 23m
Length of Day
9h 18m
Waning Gibbous, 89% of the Moon is Illuminated
Jan 19
Waning Gibbous
Jan 24
Last Quarter
Jan 30
New
Feb 6
First Quarter
Feb 14
Full

Hourly Weather History & Observations

Time (EST) Temp. Windchill Dew Point Humidity Pressure Visibility Wind Dir Wind Speed Gust Speed Precip Events Conditions
12:53 AM 28.9 °F 25.2 °F 26.1 °F 89% 29.67 in 10.0 mi WSW 3.5 mph - N/A   Overcast
1:53 AM 28.9 °F - 27.0 °F 92% 29.67 in 10.0 mi Calm Calm - N/A   Overcast
2:53 AM 28.9 °F - 26.1 °F 89% 29.68 in 10.0 mi Calm Calm - N/A   Overcast
3:53 AM 28.9 °F - 27.0 °F 92% 29.68 in 8.0 mi Calm Calm - N/A   Overcast
4:53 AM 28.9 °F - 27.0 °F 92% 29.66 in 10.0 mi Calm Calm - N/A   Overcast
5:53 AM 28.0 °F - 26.1 °F 92% 29.65 in 10.0 mi Calm Calm - N/A   Overcast
6:53 AM 28.9 °F - 27.0 °F 92% 29.67 in 10.0 mi Calm Calm - N/A   Overcast
7:53 AM 28.9 °F - 26.1 °F 89% 29.64 in 4.0 mi Calm Calm - 0.00 in Snow Light Snow
8:21 AM 30.0 °F 26.5 °F 27.0 °F 88% 29.63 in 6.0 mi SE 3.5 mph - 0.00 in   Overcast
8:53 AM 30.0 °F 26.5 °F 27.0 °F 88% 29.63 in 4.0 mi SE 3.5 mph - 0.00 in Snow Light Snow
9:03 AM 30.0 °F - 27.0 °F 88% 29.61 in 2.5 mi Calm Calm - 0.00 in Snow Light Snow
9:28 AM 30.0 °F - 28.0 °F 92% 29.60 in 1.5 mi Calm Calm - 0.00 in Snow Light Snow
9:53 AM 30.9 °F - 28.0 °F 89% 29.60 in 1.5 mi Calm Calm - 0.00 in Snow Light Snow
10:17 AM 30.9 °F - 28.0 °F 89% 29.57 in 1.2 mi Calm Calm - 0.00 in Snow Light Snow
10:21 AM 30.9 °F - 28.0 °F 89% 29.57 in 1.2 mi Calm Calm - 0.00 in Snow Light Snow
10:39 AM 30.9 °F - 28.0 °F 89% 29.55 in 0.8 mi Calm Calm - 0.01 in Snow Light Snow
10:53 AM 30.0 °F 26.5 °F 28.0 °F 92% 29.55 in 0.5 mi NNW 3.5 mph - 0.02 in Fog , Snow Snow
11:06 AM 30.0 °F 26.5 °F 28.0 °F 92% 29.52 in 0.5 mi NNW 3.5 mph - 0.00 in Fog , Snow Snow
11:47 AM 30.2 °F 26.7 °F 28.4 °F 93% 29.48 in 0.2 mi WNW 3.5 mph - 0.04 in Fog , Snow Snow
11:53 AM 30.0 °F 26.5 °F 28.0 °F 92% 29.48 in 0.2 mi WNW 3.5 mph - 0.05 in Fog , Snow Snow
12:47 PM 30.2 °F 24.3 °F 28.4 °F 93% 29.43 in 0.5 mi WNW 5.8 mph - 0.06 in Fog , Snow Snow
12:48 PM 30.9 °F 25.2 °F 28.0 °F 89% 29.43 in 0.5 mi WNW 5.8 mph - 0.06 in Fog , Snow Snow
1:13 PM 30.0 °F - 28.0 °F 92% 29.40 in 0.8 mi Calm Calm - 0.01 in Snow Light Snow
1:24 PM 30.0 °F - 28.0 °F 92% 29.40 in 1.0 mi Calm Calm - 0.01 in Snow Light Snow
1:47 PM 30.2 °F 26.7 °F 28.4 °F 93% 29.39 in 0.8 mi South 3.5 mph - 0.01 in Snow Light Snow
1:53 PM 30.0 °F 26.5 °F 28.0 °F 92% 29.39 in 0.5 mi SSW 3.5 mph - 0.02 in Fog , Snow Snow
2:09 PM 30.9 °F - 28.9 °F 92% 29.38 in 0.8 mi Calm Calm - 0.01 in Snow Light Snow
2:19 PM 30.9 °F - 28.9 °F 92% 29.37 in 1.0 mi Calm Calm - 0.01 in Snow Light Snow
2:53 PM 30.9 °F - 28.9 °F 92% 29.37 in 1.5 mi Calm Calm - 0.01 in Snow Light Snow
3:22 PM 32.0 °F - 28.9 °F 88% 29.36 in 2.5 mi Calm Calm - 0.00 in Snow Light Snow
3:37 PM 32.0 °F - 28.9 °F 88% 29.36 in 2.5 mi Calm Calm - 0.00 in Snow Light Snow
3:53 PM 32.0 °F 25.6 °F 28.9 °F 88% 29.37 in 4.0 mi SSW 6.9 mph - 0.00 in   Overcast
4:53 PM 32.0 °F 23.0 °F 27.0 °F 82% 29.36 in 7.0 mi SSW 11.5 mph - N/A   Overcast
5:53 PM 30.9 °F 21.2 °F 25.0 °F 79% 29.37 in 10.0 mi SSW 12.7 mph - 0.00 in   Mostly Cloudy
6:53 PM 28.9 °F 19.8 °F 21.9 °F 75% 29.39 in 10.0 mi SSW 10.4 mph - N/A   Mostly Cloudy
7:53 PM 28.0 °F 19.3 °F 19.9 °F 72% 29.40 in 10.0 mi SW 9.2 mph 18.4 mph N/A   Scattered Clouds
8:53 PM 27.0 °F 17.3 °F 19.0 °F 72% 29.42 in 10.0 mi SW 10.4 mph - N/A   Overcast
9:53 PM 25.0 °F 15.5 °F 18.0 °F 75% 29.42 in 10.0 mi SSW 9.2 mph - N/A   Partly Cloudy
10:53 PM 26.1 °F 16.8 °F 18.0 °F 71% 29.42 in 10.0 mi SSW 9.2 mph - N/A   Mostly Cloudy
11:53 PM 26.1 °F 16.2 °F 18.0 °F 71% 29.42 in 10.0 mi SSW 10.4 mph 17.3 mph N/A   Partly Cloudy